User: anonymous
Location: Oshawa
(43.9000°N, 78.8670°W)
Time: 18:06:15
(UTC-04:00)
Language:

CZ-4C R/B - Orbit

View from above orbital plane
View from above orbital plane
View from above satellite
View from above satellite

Ground track
Ground track

The orbit data is extracted from the following two-line orbital elements,

1 32290U 07055B   14112.81580110  .00010507  00000-0  42316-3 0  8380
2 32290 097.5790 187.0524 0089054 242.3947 235.2806 15.21399214355858
Epoch (UTC): 22 April 2014 19:34:45
Eccentricity: 0.0089054
inclination: 97.5790°
perigee height: 440 km
apogee height: 563 km
right ascension of ascending node: 187.0524°
argument of perigee: 242.3947°
revolutions per day: 15.21399214
mean anomaly at epoch: 235.2806°
orbit number at epoch: 35585

The dashed part of the orbit path shows where the satellite is in the earth's shadow,  

DLR